{"data":{"norad_id":51773,"intl_designator":"2022-017F","name":"STARLINK-3624","alt_names":[],"object_type":"PAYLOAD","status":"ACTIVE","operator":null,"country":"US","launch_date":"2022-02-25","launch_site_code":"AFWTR","launch_vehicle":null,"mission":null,"orbit_class":"UNKNOWN","rcs_meters":null,"size_class":null,"mass_kg":null,"dimensions":null,"purposes":["comms"],"wikipedia_slug":null,"has_3d_model":false,"image_url":null,"decayed_at":null,"tle_current":{"epoch":"2026-05-24T20:23:08.336256Z","epoch_age_seconds":95024,"freshness":"FRESH","line1":"1 51773U 22017F   26144.84940204 -.00000483  00000+0 -12284-4 0  9990","line2":"2 51773  53.2153 357.1952 0001293  95.3504 264.7636 15.08835290234102","mean_motion":15.0883529,"eccentricity":0.0001293,"inclination_deg":53.2153,"raan_deg":357.1952,"arg_perigee_deg":95.3504,"mean_anomaly_deg":264.7636,"bstar":-1.2284e-5,"rev_number":23410,"period_min":95.437852596886,"perigee_km":538.86330179151,"apogee_km":540.65226938307,"semimajor_km":6917.8947855873,"source":"CELESTRAK","updated_at":"2026-05-25T13:38:16.950509Z"}}}